Wind_Speed
9 11 12 13 14 16 16 16 16 18 21 25 26 27 29 30 32 33 35 37 39 41 42 42 43 44 45 45 45 45 44 44 43 42 43 44 45 46 48 49 51 52 53 53
9 9 13 14 15 16 17 18 18 20 23 26 27 28 30 31 33 35 37 39 40 42 42 43 43 44 45 46 46 45 45 44 43 43 44 45 46 47 48 50 50 51 51 50
8 8 11 14 16 18 19 20 22 23 24 26 27 28 30 31 34 36 38 40 41 42 43 44 44 45 46 46 46 46 45 45 44 44 44 45 46 48 49 49 49 48 47 47
9 8 9 15 17 18 20 21 22 23 25 27 28 31 32 32 35 37 40 41 43 44 44 45 45 46 47 47 47 46 46 45 44 44 44 45 47 48 49 47 46 45 45 44
13 11 10 15 20 18 20 23 21 23 24 26 28 32 35 36 39 41 42 43 44 45 45 45 45 46 46 47 47 46 45 44 44 44 44 45 47 48 47 45 44 43 42 40
16 15 13 15 19 19 23 26 24 25 26 27 29 30 34 37 40 41 43 43 44 45 46 46 46 46 47 47 47 46 45 44 43 43 45 45 46 46 44 42 41 40 38 35
20 19 18 23 21 23 25 27 26 27 28 28 29 31 34 37 40 41 42 44 45 46 47 47 47 46 47 47 47 46 44 43 43 43 44 45 46 44 42 40 39 38 36 32
22 21 23 27 26 26 26 25 26 27 27 28 30 32 35 38 40 41 42 44 45 46 47 48 48 47 47 47 47 45 44 43 42 43 44 45 44 42 39 38 37 35 33 30
21 23 27 29 28 27 27 26 26 26 27 29 31 34 36 38 40 41 42 43 45 46 47 48 48 48 48 47 46 45 43 42 41 42 43 44 42 39 38 37 35 32 30 27
21 21 26 28 28 28 27 27 27 27 28 30 32 34 36 38 40 41 42 43 44 46 47 48 48 49 48 47 46 44 43 42 41 41 42 42 40 38 37 35 32 31 28 24
25 25 26 27 27 27 27 27 27 28 30 31 33 35 37 38 40 41 42 43 44 45 47 48 49 49 48 47 46 44 43 41 40 41 42 41 39 37 35 33 31 29 26 21
26 26 28 27 28 28 27 27 28 29 31 33 35 36 37 39 40 41 42 42 43 45 47 48 49 49 48 47 46 44 42 40 40 40 40 40 38 36 34 32 29 27 24 20
28 27 27 27 28 29 29 29 30 32 33 34 36 37 38 39 40 41 42 42 43 45 47 48 49 48 48 47 45 44 42 40 39 39 39 38 36 34 32 30 28 25 22 18
29 28 27 27 28 29 31 32 34 35 36 36 37 38 39 40 41 41 42 42 43 44 46 47 48 48 47 46 45 43 41 40 39 38 37 37 35 34 32 30 27 24 21 17
30 30 30 29 30 31 33 35 36 37 39 39 40 41 41 41 41 41 42 42 43 44 45 46 47 47 46 45 44 42 40 39 37 37 36 36 35 33 30 28 26 23 19 16
32 32 33 34 35 35 36 38 39 40 41 42 43 43 43 43 42 42 42 42 43 43 44 45 46 46 45 44 43 41 39 38 36 35 35 35 34 32 29 27 25 22 18 15
35 36 37 38 39 40 41 42 43 44 44 44 45 44 44 43 43 43 43 43 43 43 43 44 44 44 43 43 42 40 38 36 35 34 34 34 33 31 29 27 24 21 18 15
40 42 43 43 43 44 44 45 45 46 46 45 45 45 44 44 43 43 43 43 43 43 42 42 42 42 42 42 41 39 37 35 33 32 32 33 32 30 28 26 24 21 19 16
44 45 47 47 48 48 47 46 46 47 47 47 46 46 45 45 45 44 43 43 42 42 41 41 41 40 40 40 39 38 35 33 32 30 30 31 30 29 26 25 24 22 19 17
46 47 48 49 50 50 50 49 49 49 48 48 47 47 46 46 45 45 43 42 41 40 39 39 39 38 38 38 38 37 34 32 30 28 28 28 28 27 25 23 23 21 19 18
50 49 50 51 52 52 52 52 52 51 50 50 49 49 48 47 46 45 44 42 40 38 38 37 36 36 36 36 36 35 33 30 28 26 25 25 26 25 23 22 22 21 19 18
54 54 54 55 55 54 54 54 54 54 53 53 52 50 49 47 46 46 45 41 38 36 36 35 34 34 34 34 34 33 31 28 26 24 22 22 23 22 22 21 20 20 19 18
59 59 60 60 59 58 57 56 56 56 56 55 54 52 50 48 47 47 44 40 38 36 35 33 32 32 32 31 31 31 29 27 24 21 20 20 20 20 20 19 18 18 18 17
62 63 64 64 63 62 60 59 58 58 57 57 55 53 50 49 48 47 44 40 37 36 34 32 31 31 30 29 29 29 27 25 22 19 17 17 17 17 17 17 16 16 16 16
64 65 65 64 63 62 61 60 59 58 57 56 55 53 50 47 46 45 43 40 38 36 35 32 30 29 28 27 27 26 25 23 20 18 15 14 14 14 14 14 13 13 14 14
62 62 61 60 60 59 58 57 56 55 55 54 53 51 49 46 44 43 41 40 38 36 35 32 29 27 26 24 24 24 23 21 19 16 13 12 11 11 11 11 10 11 12 12
62 60 59 57 55 54 52 51 50 49 48 48 47 46 45 44 42 41 39 38 37 35 34 31 28 25 23 22 22 22 21 19 17 15 13 11 10 9 8 7 7 7 8 8
Wind_Direction
287 292 296 299 301 305 310 313 312 311 312 314 322 324 327 329 330 331 331 330 329 329 328 327 327 326 326 325 325 323 321 319 315 313 311 310 309 307 306 304 302 299 296 292
292 293 301 312 313 312 316 318 318 317 316 319 324 326 330 332 331 332 332 331 330 330 330 329 328 328 327 327 327 326 323 321 318 316 315 314 313 312 310 309 307 304 300 296
289 285 304 315 308 311 316 318 319 319 318 321 324 326 331 333 331 332 332 332 332 332 332 332 331 330 329 329 329 327 325 323 321 319 319 317 317 316 315 313 311 308 304 301
298 297 310 304 302 307 310 312 317 318 320 323 326 327 331 334 333 335 335 336 336 335 335 334 333 332 332 332 331 329 327 325 323 322 322 321 321 320 319 318 316 312 309 306
311 305 300 296 301 310 312 313 319 318 320 323 327 328 330 335 336 338 338 338 338 337 336 336 335 334 334 333 333 331 329 327 326 325 325 325 324 324 323 321 319 317 315 312
308 308 306 298 299 315 312 311 322 320 324 326 327 328 331 334 336 337 338 338 338 339 338 338 337 336 336 335 334 333 331 330 328 328 328 328 328 327 327 325 324 323 321 318
311 313 310 298 309 308 306 312 317 319 322 323 325 328 330 333 335 336 337 339 339 340 340 340 339 338 337 337 336 334 333 332 331 330 331 331 331 331 330 329 329 328 327 324
296 298 289 295 302 302 303 307 310 314 317 320 323 326 330 333 335 336 338 339 340 340 341 340 340 339 339 338 337 336 335 333 333 333 333 334 334 333 332 332 332 332 332 330
291 289 291 296 300 301 302 305 309 312 316 319 323 326 330 333 335 336 337 338 339 340 341 341 341 340 340 340 339 338 336 335 335 335 335 336 337 336 336 336 336 336 336 336
298 294 291 296 298 299 301 304 308 311 315 318 322 325 329 332 334 334 335 337 338 340 341 341 341 341 341 341 340 339 338 337 337 337 338 339 339 339 339 339 338 339 339 340
298 298 296 297 298 300 302 305 308 311 314 317 321 324 327 330 332 333 334 336 337 338 340 341 341 341 341 342 342 341 340 339 339 340 341 341 342 342 341 340 340 341 342 342
299 299 300 301 301 302 304 306 308 310 313 316 319 323 326 328 330 332 333 334 336 338 339 340 341 342 342 342 343 342 342 341 340 341 343 344 344 344 343 342 342 342 345 347
299 299 299 300 301 303 305 307 307 309 311 314 317 320 323 325 328 330 332 333 335 337 339 340 341 342 342 343 343 343 343 343 342 343 345 347 347 347 346 345 345 345 347 349
297 298 298 298 298 300 302 304 306 308 310 312 315 318 321 323 326 329 331 332 333 335 337 338 340 341 342 343 343 343 344 343 344 345 347 348 349 349 348 348 348 348 349 351
294 295 296 297 297 298 299 301 304 306 308 311 314 317 320 322 324 327 329 331 332 333 335 337 339 341 342 342 343 344 344 344 345 347 348 349 351 351 351 350 350 350 352 352
292 293 295 296 297 298 299 301 303 305 307 310 313 315 317 320 322 324 326 328 329 331 333 335 337 339 341 342 343 344 344 344 346 348 349 350 352 352 352 351 351 352 353 355
291 292 293 294 296 297 299 300 302 303 305 307 310 312 314 316 319 320 323 325 327 329 331 333 335 337 340 342 343 344 344 345 346 348 350 352 353 353 353 353 354 355 357 357
289 289 290 291 293 294 296 298 299 301 302 305 307 309 311 313 315 316 319 321 323 325 328 330 333 336 339 341 342 343 344 345 346 348 351 353 354 355 356 358 360 359 360 2
286 287 288 290 292 294 295 295 296 298 299 302 303 305 307 309 311 312 314 317 319 321 325 328 331 334 337 339 341 342 343 344 345 347 350 353 355 358 360 2 4 3 4 6
284 284 286 288 290 291 292 293 293 293 295 296 298 299 300 302 305 307 309 312 315 318 322 324 328 331 333 336 340 341 342 343 344 346 349 353 355 358 1 3 4 6 8 9
284 284 284 285 286 287 288 288 289 289 289 290 292 294 295 297 299 302 303 305 310 315 318 321 324 326 329 334 337 340 341 341 342 344 347 352 355 359 3 5 6 8 9 13
284 284 284 284 284 284 285 285 285 286 286 286 288 289 291 292 294 297 299 300 304 308 313 316 320 323 326 330 334 337 339 339 340 342 345 349 354 359 3 5 7 11 13 18
283 283 283 283 283 284 284 284 284 284 284 285 286 286 288 289 290 294 296 297 300 303 308 312 316 319 322 326 330 334 336 337 337 339 341 346 351 356 2 6 8 13 16 21
281 281 282 283 284 284 284 284 284 283 284 285 285 286 287 287 288 290 292 294 296 299 303 307 311 314 317 320 325 329 332 334 334 334 336 341 347 353 360 6 12 18 23 27
281 282 283 283 284 284 284 284 284 283 283 283 284 286 286 285 285 286 287 289 289 294 298 302 306 310 312 315 320 325 328 330 331 330 329 333 340 347 356 5 13 21 28 32
282 283 283 283 284 284 284 284 283 283 284 284 284 284 284 283 282 281 283 285 286 290 294 298 302 305 306 309 315 320 324 326 328 325 321 321 328 338 348 3 16 24 29 34
284 284 284 285 285 285 285 285 285 285 285 284 284 283 282 281 280 279 279 281 284 288 291 294 298 299 300 303 309 315 319 322 323 321 313 307 310 320 331 347 6 18 26 31
Height
5859 5858 5857 5855 5853 5851 5848 5846 5844 5842 5839 5834 5830 5826 5821 5815 5809 5803 5796 5789 5782 5775 5767 5759 5751 5743 5734 5726 5718 5710 5702 5695 5687 5681 5674 5667 5660 5654 5646 5639 5632 5625 5618 5611
5857 5856 5854 5853 5851 5848 5845 5843 5841 5838 5835 5830 5826 5821 5816 5811 5804 5798 5791 5784 5776 5768 5760 5751 5743 5734 5726 5717 5709 5701 5692 5685 5677 5670 5663 5655 5648 5640 5631 5623 5615 5606 5598 5591
5854 5853 5852 5851 5848 5845 5843 5840 5837 5834 5831 5826 5822 5817 5812 5806 5800 5793 5785 5777 5769 5760 5752 5743 5734 5726 5717 5708 5700 5691 5683 5675 5667 5659 5652 5643 5635 5626 5617 5608 5599 5590 5581 5573
5851 5851 5849 5850 5845 5843 5840 5837 5834 5830 5825 5821 5816 5811 5807 5802 5795 5787 5779 5770 5762 5753 5744 5736 5727 5718 5709 5700 5691 5683 5674 5666 5657 5649 5641 5632 5623 5614 5604 5594 5585 5575 5567 5558
5849 5847 5847 5845 5841 5839 5836 5832 5830 5826 5822 5818 5813 5806 5799 5795 5787 5780 5772 5764 5755 5746 5738 5729 5720 5711 5702 5692 5683 5674 5666 5657 5648 5640 5632 5622 5613 5603 5593 5583 5573 5563 5554 5546
5845 5844 5842 5842 5837 5835 5832 5827 5825 5820 5817 5812 5808 5804 5797 5789 5782 5775 5767 5758 5750 5741 5732 5723 5713 5704 5695 5685 5676 5667 5658 5649 5640 5632 5623 5613 5603 5593 5583 5573 5563 5554 5545 5536
5841 5840 5839 5834 5833 5832 5828 5824 5820 5815 5812 5808 5803 5798 5792 5785 5777 5769 5761 5753 5744 5735 5726 5717 5707 5698 5688 5679 5669 5660 5651 5642 5633 5624 5615 5605 5595 5585 5575 5565 5556 5547 5538 5529
5839 5836 5836 5829 5828 5826 5823 5819 5815 5811 5807 5803 5798 5792 5786 5779 5772 5764 5756 5747 5739 5730 5720 5711 5701 5692 5683 5673 5663 5654 5644 5636 5627 5617 5608 5598 5588 5578 5568 5559 5550 5541 5533 5525
5835 5834 5828 5825 5822 5819 5816 5813 5810 5806 5802 5798 5792 5787 5780 5774 5766 5759 5751 5742 5734 5725 5715 5706 5696 5686 5677 5667 5657 5648 5639 5630 5621 5612 5602 5592 5582 5572 5563 5554 5546 5537 5529 5522
5829 5827 5823 5819 5816 5813 5810 5807 5804 5801 5797 5792 5787 5781 5775 5768 5761 5754 5746 5737 5729 5720 5711 5701 5691 5681 5671 5662 5652 5642 5633 5624 5616 5606 5597 5587 5577 5568 5559 5550 5542 5534 5527 5520
5822 5820 5817 5814 5811 5808 5805 5802 5798 5795 5790 5786 5781 5775 5769 5762 5755 5748 5740 5732 5724 5715 5706 5696 5687 5676 5666 5657 5647 5638 5629 5620 5611 5602 5592 5583 5573 5564 5556 5548 5540 5533 5526 5519
5817 5814 5811 5808 5805 5802 5799 5796 5793 5789 5784 5779 5774 5768 5762 5756 5749 5742 5734 5727 5718 5710 5701 5692 5682 5672 5662 5652 5643 5634 5625 5616 5607 5598 5589 5579 5570 5562 5553 5546 5538 5531 5525 5519
5810 5807 5805 5802 5799 5795 5792 5789 5786 5782 5778 5773 5767 5762 5756 5750 5743 5736 5729 5721 5713 5705 5696 5687 5678 5668 5658 5648 5639 5630 5621 5612 5603 5595 5586 5577 5568 5559 5552 5545 5537 5531 5525 5520
5803 5801 5798 5796 5793 5789 5786 5782 5778 5774 5770 5765 5760 5755 5749 5743 5736 5730 5722 5715 5707 5699 5691 5682 5673 5664 5654 5645 5635 5626 5617 5609 5600 5592 5583 5575 5566 5558 5551 5544 5537 5531 5525 5521
5796 5793 5791 5788 5785 5782 5779 5775 5771 5766 5761 5757 5752 5747 5741 5735 5729 5723 5716 5709 5702 5694 5686 5677 5669 5660 5650 5641 5632 5623 5615 5606 5598 5590 5582 5573 5565 5557 5550 5543 5537 5531 5526 5522
5788 5785 5782 5779 5776 5773 5770 5766 5762 5757 5753 5748 5743 5738 5733 5727 5722 5715 5709 5703 5696 5689 5681 5673 5664 5656 5647 5638 5629 5621 5612 5604 5596 5589 5581 5573 5565 5557 5550 5544 5537 5532 5527 5523
5778 5775 5773 5770 5767 5763 5760 5756 5752 5748 5743 5738 5734 5729 5724 5719 5714 5708 5702 5696 5689 5683 5676 5668 5660 5652 5644 5635 5627 5618 5610 5602 5595 5587 5580 5572 5565 5557 5550 5544 5538 5533 5528 5524
5767 5765 5762 5759 5756 5753 5750 5746 5741 5737 5733 5729 5724 5720 5715 5711 5706 5700 5695 5689 5683 5677 5670 5663 5656 5648 5640 5632 5624 5616 5608 5601 5594 5587 5580 5572 5565 5558 5551 5545 5539 5534 5529 5525
5755 5752 5749 5746 5743 5740 5738 5735 5731 5726 5722 5719 5715 5710 5706 5702 5697 5692 5687 5682 5677 5671 5664 5658 5651 5644 5637 5629 5622 5614 5606 5599 5592 5586 5580 5573 5566 5559 5553 5547 5542 5536 5531 5527
5743 5740 5737 5734 5731 5728 5725 5722 5719 5715 5712 5708 5704 5701 5696 5692 5688 5683 5679 5674 5669 5664 5658 5652 5646 5640 5633 5626 5619 5611 5604 5597 5591 5585 5580 5574 5567 5561 5555 5549 5544 5538 5534 5529
5730 5728 5725 5722 5719 5715 5712 5709 5706 5703 5699 5696 5693 5689 5685 5681 5677 5673 5669 5665 5661 5656 5651 5646 5641 5635 5628 5622 5615 5609 5602 5596 5590 5585 5580 5574 5568 5563 5557 5551 5546 5541 5536 5532
5714 5712 5709 5706 5703 5700 5697 5694 5691 5688 5685 5682 5680 5676 5673 5669 5666 5662 5659 5656 5652 5647 5643 5639 5634 5629 5623 5617 5612 5606 5600 5594 5588 5584 5579 5575 5570 5564 5559 5554 5549 5544 5539 5535
5696 5694 5691 5688 5686 5683 5681 5678 5675 5672 5669 5667 5665 5662 5660 5657 5654 5651 5648 5646 5642 5639 5635 5631 5627 5623 5618 5613 5608 5602 5597 5591 5587 5582 5578 5574 5570 5566 5561 5556 5552 5547 5543 5539
5677 5675 5672 5669 5667 5665 5663 5661 5658 5655 5652 5650 5648 5647 5646 5644 5641 5639 5637 5635 5632 5629 5626 5623 5620 5616 5612 5608 5603 5598 5593 5588 5584 5580 5577 5574 5570 5567 5563 5558 5554 5551 5547 5543
5657 5655 5653 5650 5648 5645 5644 5642 5640 5637 5635 5634 5633 5632 5631 5630 5628 5626 5624 5624 5621 5618 5616 5614 5611 5608 5605 5601 5598 5594 5589 5585 5581 5578 5575 5573 5570 5567 5564 5560 5557 5554 5551 5548
5638 5636 5634 5631 5629 5627 5625 5623 5621 5620 5618 5617 5617 5616 5615 5615 5614 5613 5612 5611 5610 5608 5607 5605 5603 5600 5598 5595 5592 5589 5585 5581 5578 5575 5573 5571 5569 5567 5564 5562 5559 5557 5554 5552
5618 5616 5614 5613 5611 5609 5607 5606 5604 5603 5602 5601 5600 5600 5600 5600 5600 5600 5600 5599 5598 5598 5597 5596 5594 5592 5590 5588 5586 5583 5580 5577 5574 5571 5570 5568 5567 5566 5564 5562 5561 5559 5557 5555